カタログに戻る

ARIANE 44L DEB

運用中HEO
NORAD 28041·DEBRIS·🇫🇷 France

打ち上げ Oct 29, 1991 から Guiana Space Centre

Loading…

次のパス (今後24時間)

TLE

最新Source: Space-Track

元期: Sep 14, 2026, 12:49 UTC

1 28041U 91075L   26257.53432788 -.00000259  00000-0 -39536-2 0  9995
2 28041   6.9275 261.8052 6603828 239.5577 254.2009  2.85130511253953

AllMySatでARIANE 44L DEBをリアルタイム追跡

Download on the App Store